Home > Weather > Göttingen > Past weeks

Flag for Germany Weather for the Past 2 Weeks in Göttingen, Lower Saxony, Germany

Now
52 °F

Sunny.


Feels Like: 46 °F
Forecast: 38 / 54 °F
Wind: 18 mph from South

Location: Kassel / Calden

Current Time: Apr 29, 2016 at 4:47:03 PM

Latest Report: Apr 29, 2016 at 3:50 PM


Visibility: 10 mi

Pressure: 29.98 "Hg

Humidity: 44%

Dew Point: 30 °F

Location of GöttingenLocation

Historic Weather in Göttingen — Graph

°F

Göttingen Temperature Yesterday

Maximum temperature yesterday: 46 °F (at 2:20 PM)
Minimum temperature yesterday: 36 °F (at 7:20 AM)
Average temperature yesterday: 42 °F

High & Low Weather Summary for the Past Weeks

 TemperatureHumidityPressure
High63 °F (Apr 21, 4:20 PM)100% (Apr 20, 6:50 AM)30.45 "Hg (Apr 20, 6:50 AM)
Low32 °F (Apr 24, 7:20 PM)32% (Apr 21, 5:20 PM)29.45 "Hg (Apr 26, 1:20 PM)
Average46 °F65%29.90 "Hg
* Reported Apr 14 3:20 PM — Apr 29 3:20 PM, Göttingen, Weather by CustomWeather, © 2016

Note: Actual official high and low records may vary slightly from our data, if they occured in-between our weather recording intervals... More about our weather records

Advertising

Göttingen Weather History for the Previous 24 Hours

Scroll right to see more
 ConditionsComfort  
Time TempWeatherWind HumidityBarometerVisibility
3:20 PM
Fri, Apr 29
52 °FPassing clouds.18 mph44%29.98 "HgN/A
2:50 PM54 °FPartly sunny.16 mph47%29.98 "HgN/A
2:20 PM52 °FPartly sunny.18 mph47%30.01 "HgN/A
1:50 PM52 °FScattered clouds.17 mph44%30.01 "HgN/A
1:20 PM50 °FPartly sunny.15 mph47%29.98 "HgN/A
12:50 PM52 °FBroken clouds.16 mph47%30.01 "HgN/A
12:20 PM50 °FBroken clouds.15 mph47%29.98 "HgN/A
11:50 AM48 °FMore clouds than sun.14 mph58%30.01 "HgN/A
11:20 AM48 °FOvercast.14 mph54%30.01 "HgN/A
10:50 AM46 °FOvercast.10 mph66%30.01 "HgN/A
9:50 AM43 °FPartly sunny.8 mph71%30.01 "HgN/A
9:20 AM41 °FSunny.8 mph76%30.01 "Hg10 mi
8:50 AM41 °FSunny.8 mph70%30.01 "Hg10 mi
8:20 AM39 °FSunny.6 mph75%30.01 "Hg10 mi
7:50 AM37 °FSunny.5 mph81%30.01 "Hg10 mi
8:50 PM
Thu, Apr 28
39 °FScattered showers. Scattered clouds.8 mph75%29.98 "HgN/A
7:50 PM43 °FPassing clouds.7 mph66%29.95 "HgN/A
7:20 PM45 °FPassing clouds.6 mph66%29.98 "HgN/A
6:50 PM45 °FPassing clouds.2 mph61%29.95 "HgN/A
6:20 PM46 °FScattered clouds.2 mph62%29.95 "HgN/A
5:50 PM43 °FScattered showers. Scattered clouds.2 mph66%29.98 "HgN/A
5:20 PM39 °FScattered showers. Partly sunny.17 mph81%29.95 "HgN/A
4:50 PM45 °FScattered showers. Broken clouds.15 mph61%29.95 "HgN/A
4:20 PM46 °FBroken clouds.17 mph62%29.95 "HgN/A
Weather by CustomWeather, © 2016

See weather overviewHow to use our weather pages